User: anonymous   Login
Location: Irma
(52.9170°N, 111.2330°W)
Time: 23:06:01
(UTC-06:00)
Language:

deb Chang Zheng 4 - Orbit

View from above orbital plane
View from above orbital plane
View from above satellite
View from above satellite

Ground track
Ground track

The orbit data is extracted from the following two-line orbital elements,

1 20847U 90081K   14298.54136380  .00020614  00000-0  35609-2 0  2208
2 20847 098.5777 108.3757 0021834 251.0699 149.7355 14.68278363263314
Epoch (UTC): 25 October 2014 12:59:33
Eccentricity: 0.0021834
inclination: 98.5777°
perigee height: 651 km
apogee height: 682 km
right ascension of ascending node: 108.3757°
argument of perigee: 251.0699°
revolutions per day: 14.68278363
mean anomaly at epoch: 149.7355°
orbit number at epoch: 26331

The dashed part of the orbit path shows where the satellite is in the earth's shadow,  

DLR